Weather History for VDSR - January, 2013

Change the Weather History Date:

Sunday, January 6, 2013

  Actual Average Record
Temperature  
Mean Temperature 79 °F -  
Max Temperature 87 °F - - ()
Min Temperature 71 °F - - ()
Cooling Degree Days 14    
Growing Degree Days 29 (Base 50)    
Moisture  
Dew Point 65 °F    
Average Humidity 60    
Maximum Humidity 83    
Minimum Humidity 40    
Precipitation  
Precipitation 0.00 in - - ()
Sea Level Pressure  
Sea Level Pressure 29.82 in    
Wind  
Wind Speed 3 mph ()    
Max Wind Speed 7 mph    
Max Gust Speed -    
Visibility 5.7 miles    
Events      
T = Trace of Precipitation, MM = Missing Value Source: Averaged Metar Reports

Daily Weather History Graph

Daily Weather History Graph

Search for Another Location

Airport or City:

Trip Planner

Search our weather history database for the weather conditions in past years. The results will help you decide how hot, cold, wet, or windy it might be!

Date:

Astronomy

Jan. 06, 2013 Rise Set
Actual Time 6:29 AM ICT 5:51 PM ICT
Civil Twilight 6:06 AM ICT 6:14 PM ICT
Nautical Twilight 5:39 AM ICT 6:41 PM ICT
Astronomical Twilight 5:13 AM ICT 7:07 PM ICT
Moon 12:34 AM ICT 12:35 PM ICT
Length of Visible Light 12h 08m
Length of Day
11h 22m
Last Quarter, 39% of the Moon is Illuminated
Jan 6
Last Quarter
Jan 12
New
Jan 19
First Quarter
Jan 27
Full
Feb 3
Last Quarter

Hourly Weather History & Observations

Time (ICT) Temp. Heat Index Dew Point Humidity Pressure Visibility Wind Dir Wind Speed Gust Speed Precip Events Conditions
12:00 AM 75.2 °F - 69.8 °F 83% 29.80 in 4.3 mi Variable 1.2 mph - N/A   Partly Cloudy
12:30 AM 73.4 °F - 68.0 °F 83% 29.80 in 4.3 mi Calm Calm - N/A   Partly Cloudy
7:00 AM - - - %  in - Calm Calm - -  
7:00 AM 73.4 °F - 66.2 °F 78% 29.86 in 5.0 mi NE 4.6 mph - N/A   Scattered Clouds
7:30 AM 73.4 °F - 66.2 °F 78% 29.86 in 5.0 mi Calm Calm - N/A   Scattered Clouds
8:00 AM 75.2 °F - 64.4 °F 69% 29.86 in 5.0 mi NE 2.3 mph - N/A   Scattered Clouds
8:30 AM 75.2 °F - 64.4 °F 69% 29.89 in 5.0 mi NE 5.8 mph - N/A   Scattered Clouds
9:00 AM 77.0 °F - 64.4 °F 65% 29.89 in 5.6 mi NNE 4.6 mph - N/A   Scattered Clouds
9:30 AM 78.8 °F - 64.4 °F 61% 29.89 in 5.6 mi ENE 5.8 mph - N/A   Scattered Clouds
10:00 AM 80.6 °F 82.3 °F 64.4 °F 58% 29.89 in 6.2 mi East 5.8 mph - N/A   Scattered Clouds
10:30 AM 82.4 °F 83.9 °F 64.4 °F 54% 29.89 in 6.2 mi East 4.6 mph - N/A   Scattered Clouds
11:00 AM 82.4 °F 83.9 °F 64.4 °F 54% 29.89 in 6.2 mi East 3.5 mph - N/A   Scattered Clouds
11:30 AM 84.2 °F 85.6 °F 64.4 °F 51% 29.86 in 6.2 mi Variable 3.5 mph - N/A   Scattered Clouds
12:00 PM 84.2 °F 85.6 °F 64.4 °F 51% 29.86 in 6.2 mi East 4.6 mph - N/A   Scattered Clouds
12:30 PM 86.0 °F 87.3 °F 64.4 °F 48% 29.83 in 6.2 mi NE 4.6 mph - N/A   Scattered Clouds
1:00 PM 86.0 °F 87.3 °F 64.4 °F 48% 29.80 in 6.2 mi East 5.8 mph - N/A   Scattered Clouds
1:30 PM 86.0 °F 86.6 °F 62.6 °F 45% 29.80 in 6.2 mi NNE 5.8 mph - N/A   Scattered Clouds
2:00 PM 86.0 °F 86.6 °F 62.6 °F 45% 29.77 in 6.2 mi North 6.9 mph - N/A   Scattered Clouds
2:30 PM 86.0 °F 86.1 °F 60.8 °F 43% 29.77 in 6.2 mi North 5.8 mph - N/A   Scattered Clouds
3:00 PM 86.0 °F 86.1 °F 60.8 °F 43% 29.77 in 6.2 mi NNE 5.8 mph - N/A   Scattered Clouds
3:30 PM 86.0 °F 86.6 °F 62.6 °F 45% 29.77 in 6.2 mi ENE 4.6 mph - N/A   Scattered Clouds
4:00 PM 87.8 °F 87.6 °F 60.8 °F 40% 29.77 in 6.2 mi NNE 4.6 mph - N/A   Scattered Clouds
4:30 PM 86.0 °F 86.6 °F 62.6 °F 45% 29.77 in 6.2 mi East 5.8 mph - N/A   Scattered Clouds
5:00 PM 86.0 °F 86.6 °F 62.6 °F 45% 29.77 in 6.2 mi East 5.8 mph - N/A   Scattered Clouds
5:30 PM 84.2 °F 85.6 °F 64.4 °F 51% 29.77 in 6.2 mi East 4.6 mph - N/A   Scattered Clouds
6:00 PM 84.2 °F 85.6 °F 64.4 °F 51% 29.80 in 6.2 mi East 3.5 mph - N/A   Scattered Clouds
6:30 PM 82.4 °F 84.6 °F 66.2 °F 58% 29.80 in 6.2 mi ESE 2.3 mph - N/A   Scattered Clouds
7:00 PM 80.6 °F 82.7 °F 66.2 °F 61% 29.80 in 6.2 mi Variable 1.2 mph - N/A   Scattered Clouds
7:30 PM 80.6 °F 82.7 °F 66.2 °F 61% 29.83 in 5.6 mi ENE 4.6 mph - N/A   Scattered Clouds
8:00 PM 80.6 °F 82.7 °F 66.2 °F 61% 29.83 in 6.2 mi ENE 3.5 mph - N/A   Scattered Clouds
8:30 PM 78.8 °F - 66.2 °F 65% 29.83 in 5.6 mi Calm Calm - N/A   Scattered Clouds
9:00 PM 78.8 °F - 69.8 °F 74% 29.83 in 5.6 mi Calm Calm - N/A   Scattered Clouds
9:30 PM 77.0 °F - 69.8 °F 78% 29.83 in 5.6 mi WSW 2.3 mph - N/A   Scattered Clouds
10:00 PM 77.0 °F - 69.8 °F 78% 29.83 in 5.6 mi Calm Calm - N/A   Scattered Clouds
10:30 PM 77.0 °F - 68.0 °F 74% 29.83 in 5.0 mi Variable 1.2 mph - N/A   Scattered Clouds
11:00 PM 77.0 °F - 68.0 °F 74% 29.80 in 5.0 mi Variable 1.2 mph - N/A   Scattered Clouds
11:30 PM 77.0 °F - 69.8 °F 78% 29.80 in 5.0 mi NW 2.3 mph - N/A   Scattered Clouds